Date,Installs,Update checks
2017-09-07,0,0
2017-09-08,0,1
2017-09-09,11,11
2017-09-10,18,15
2017-09-11,10,27
2017-09-12,8,31
2017-09-13,12,26
2017-09-14,6,43
2017-09-15,13,50
2017-09-16,9,50
2017-09-17,7,50
2017-09-18,7,65
2017-09-19,6,63
2017-09-20,9,66
2017-09-21,11,63
2017-09-22,11,83
2017-09-23,10,76
2017-09-24,5,66
2017-09-25,15,86
2017-09-26,20,101
2017-09-27,14,98
2017-09-28,8,110
2017-09-29,5,100
2017-09-30,5,97
2017-10-01,8,80
2017-10-02,5,104
2017-10-03,4,93
2017-10-04,5,93
2017-10-05,7,99
2017-10-06,7,109
2017-10-07,5,103
2017-10-08,9,121
2017-10-09,8,130
2017-10-10,9,131
2017-10-11,22,148
2017-10-12,15,164
2017-10-13,16,169
2017-10-14,8,148
2017-10-15,9,153
2017-10-16,13,183
2017-10-17,8,174
2017-10-18,11,195
2017-10-19,7,186
2017-10-20,7,183
2017-10-21,11,186
2017-10-22,12,184
2017-10-23,7,223
2017-10-24,9,201
2017-10-25,7,198
2017-10-26,17,232
2017-10-27,12,215
2017-10-28,14,208
2017-10-29,14,211
2017-10-30,7,246
2017-10-31,4,245
2017-11-01,10,255
2017-11-02,11,237
2017-11-03,8,264
2017-11-04,3,235
2017-11-05,6,235
2017-11-06,3,152
2017-11-07,2,271
2017-11-08,8,255
2017-11-09,10,268
2017-11-10,9,253
2017-11-11,3,237
2017-11-12,5,237
2017-11-13,9,260
2017-11-14,7,275
2017-11-15,7,278
2017-11-16,12,273
2017-11-17,7,268
2017-11-18,12,238
2017-11-19,10,218
2017-11-20,12,304
2017-11-21,6,261
2017-11-22,5,236
2017-11-23,11,252
2017-11-24,9,260
2017-11-25,6,238
2017-11-26,8,226
2017-11-27,6,277
2017-11-28,8,257
2017-11-29,6,279
2017-11-30,3,273
2017-12-01,6,265
2017-12-02,6,242
2017-12-03,7,238
2017-12-04,1,296
2017-12-05,4,283
2017-12-06,9,298
2017-12-07,8,294
2017-12-08,7,304
2017-12-09,6,259
2017-12-10,7,266
2017-12-11,10,314
2017-12-12,1,314
2017-12-13,4,307
2017-12-14,8,303
2017-12-15,8,317
2017-12-16,6,279
2017-12-17,5,260
2017-12-18,11,314
2017-12-19,13,313
2017-12-20,9,318
2017-12-21,4,324
2017-12-22,10,329
2017-12-23,9,288
2017-12-24,5,284
2017-12-25,12,358
2017-12-26,10,340
2017-12-27,15,335
2017-12-28,3,349
2017-12-29,9,317
2017-12-30,3,303
2017-12-31,10,288
2018-01-01,6,295
2018-01-02,10,361
2018-01-03,7,355
2018-01-04,11,369
2018-01-05,7,355
2018-01-06,9,316
2018-01-07,9,308
2018-01-08,11,391
2018-01-09,2,398
2018-01-10,11,372
2018-01-11,4,377
2018-01-12,6,357
2018-01-13,9,325
2018-01-14,6,333
2018-01-15,15,394
2018-01-16,10,376
2018-01-17,15,374
2018-01-18,12,379
2018-01-19,12,364
2018-01-20,6,327
2018-01-21,4,354
2018-01-22,8,372
2018-01-23,10,414
2018-01-24,8,398
2018-01-25,7,420
2018-01-26,10,388
2018-01-27,14,387
2018-01-28,8,380
2018-01-29,11,433
2018-01-30,13,441
2018-01-31,4,405
2018-02-01,13,408
2018-02-02,10,424
2018-02-03,14,383
2018-02-04,7,378
2018-02-05,10,408
2018-02-06,10,435
2018-02-07,15,428
2018-02-08,10,396
2018-02-09,7,424
2018-02-10,5,366
2018-02-11,9,396
2018-02-12,4,399
2018-02-13,10,376
2018-02-14,7,359
2018-02-15,8,313
2018-02-16,11,359
2018-02-17,4,330
2018-02-18,4,339
2018-02-19,7,352
2018-02-20,8,358
2018-02-21,5,369
2018-02-22,13,431
2018-02-23,16,433
2018-02-24,11,426
2018-02-25,6,382
2018-02-26,9,456
2018-02-27,11,476
2018-02-28,8,458
2018-03-01,8,464
2018-03-02,13,449
2018-03-03,6,414
2018-03-04,6,407
2018-03-05,7,508
2018-03-06,10,478
2018-03-07,8,490
2018-03-08,8,482
2018-03-09,9,469
2018-03-10,7,453
2018-03-11,13,412
2018-03-12,7,518
2018-03-13,8,519
2018-03-14,10,472
2018-03-15,5,512
2018-03-16,5,464
2018-03-17,16,439
2018-03-18,18,439
2018-03-19,17,529
2018-03-20,23,507
2018-03-21,19,512
2018-03-22,9,514
2018-03-23,16,556
2018-03-24,16,477
2018-03-25,12,496
2018-03-26,15,567
2018-03-27,12,570
2018-03-28,9,538
2018-03-29,10,544
2018-03-30,7,526
2018-03-31,8,487
2018-04-01,13,513
2018-04-02,4,573
2018-04-03,2,536
2018-04-04,6,535
2018-04-05,9,482
2018-04-06,7,452
2018-04-07,9,516
2018-04-08,4,576
2018-04-09,5,585
2018-04-10,11,584
2018-04-11,8,584
2018-04-12,4,555
2018-04-13,9,578
2018-04-14,7,512
2018-04-15,5,519
2018-04-16,10,625
2018-04-17,14,591
2018-04-18,7,599
2018-04-19,15,592
2018-04-20,13,587
2018-04-21,9,551
2018-04-22,3,555
2018-04-23,2,616
2018-04-24,12,586
2018-04-25,4,613
2018-04-26,9,626
2018-04-27,10,614
2018-04-28,3,565
2018-04-29,4,491
2018-04-30,4,529
2018-05-01,9,553
2018-05-02,3,607
2018-05-03,9,606
2018-05-04,5,594
2018-05-05,3,530
2018-05-06,7,534
2018-05-07,7,605
2018-05-08,8,569
2018-05-09,8,569
2018-05-10,10,601
2018-05-11,8,624
2018-05-12,12,525
2018-05-13,7,550
2018-05-14,11,624
2018-05-15,6,597
2018-05-16,7,607
2018-05-17,7,618
2018-05-18,4,609
2018-05-19,4,410
2018-05-20,5,564
2018-05-21,8,615
2018-05-22,7,625
2018-05-23,5,627
2018-05-24,10,602
2018-05-25,6,620
2018-05-26,9,543
2018-05-27,11,533
2018-05-28,11,652
2018-05-29,9,621
2018-05-30,16,624
2018-05-31,5,598
2018-06-01,4,615
2018-06-02,10,492
2018-06-03,9,532
2018-06-04,4,591
2018-06-05,1,559
2018-06-06,9,561
2018-06-07,3,600
2018-06-08,10,585
2018-06-09,8,493
2018-06-10,10,513
2018-06-11,11,585
2018-06-12,3,559
2018-06-13,8,581
2018-06-14,15,589
2018-06-15,10,569
2018-06-16,7,508
2018-06-17,11,519
2018-06-18,6,520
2018-06-19,4,604
2018-06-20,6,405
2018-06-21,11,455
2018-06-22,8,607
2018-06-23,7,530
2018-06-24,10,531
2018-06-25,3,598
2018-06-26,8,601
2018-06-27,9,593
2018-06-28,9,604
2018-06-29,12,597
2018-06-30,8,556
2018-07-01,8,545
2018-07-02,4,642
2018-07-03,9,592
2018-07-04,8,603
2018-07-05,5,611
2018-07-06,7,587
2018-07-07,10,532
2018-07-08,7,512
2018-07-09,7,624
2018-07-10,4,626
2018-07-11,5,611
2018-07-12,8,620
2018-07-13,11,595
2018-07-14,10,533
2018-07-15,12,549
2018-07-16,12,590
2018-07-17,12,632
2018-07-18,12,637
2018-07-19,7,621
2018-07-20,21,650
2018-07-21,18,554
2018-07-22,19,564
2018-07-23,19,649
2018-07-24,10,661
2018-07-25,14,649
2018-07-26,14,637
2018-07-27,9,651
2018-07-28,8,553
2018-07-29,11,567
2018-07-30,7,693
2018-07-31,11,654
2018-08-01,14,674
2018-08-02,14,635
2018-08-03,8,646
2018-08-04,12,554
2018-08-05,9,571
2018-08-06,9,690
2018-08-07,12,683
2018-08-08,13,685
2018-08-09,8,675
2018-08-10,2,698
2018-08-11,7,579
2018-08-12,8,568
2018-08-13,14,705
2018-08-14,3,647
2018-08-15,7,678
2018-08-16,9,626
2018-08-17,11,633
2018-08-18,5,588
2018-08-19,3,587
2018-08-20,9,690
2018-08-21,10,685
2018-08-22,15,666
2018-08-23,12,664
2018-08-24,11,647
2018-08-25,12,609
2018-08-26,10,581
2018-08-27,16,696
2018-08-28,7,681
2018-08-29,8,674
2018-08-30,17,654
2018-08-31,9,665
2018-09-01,11,570
2018-09-02,12,604
2018-09-03,10,693
2018-09-04,6,675
2018-09-05,10,686
2018-09-06,7,679
2018-09-07,5,687
2018-09-08,8,598
2018-09-09,13,614
2018-09-10,12,686
2018-09-11,13,676
2018-09-12,10,697
2018-09-13,11,647
2018-09-14,5,672
2018-09-15,12,602
2018-09-16,14,598
2018-09-17,12,688
2018-09-18,14,676
2018-09-19,7,690
2018-09-20,9,673
2018-09-21,4,672
2018-09-22,7,596
2018-09-23,6,583
2018-09-24,6,593
2018-09-25,7,697
2018-09-26,13,657
2018-09-27,3,693
2018-09-28,17,673
2018-09-29,9,632
2018-09-30,10,658
2018-10-01,9,579
2018-10-02,9,598
2018-10-03,10,529
2018-10-04,6,571
2018-10-05,1,554
2018-10-06,6,592
2018-10-07,3,574
2018-10-08,8,697
2018-10-09,11,701
2018-10-10,13,714
2018-10-11,12,695
2018-10-12,10,679
2018-10-13,11,612
2018-10-14,11,618
2018-10-15,6,716
2018-10-16,9,690
2018-10-17,7,684
2018-10-18,12,702
2018-10-19,14,701
2018-10-20,6,597
2018-10-21,8,572
2018-10-22,6,724
2018-10-23,10,713
2018-10-24,11,682
2018-10-25,13,696
2018-10-26,15,708
2018-10-27,11,605
2018-10-28,12,579
2018-10-29,8,710
2018-10-30,10,699
2018-10-31,9,680
2018-11-01,11,682
2018-11-02,10,690
2018-11-03,6,613
2018-11-04,3,606
2018-11-05,7,729
2018-11-06,7,694
2018-11-07,56,761
2018-11-08,22,731
2018-11-09,16,770
2018-11-10,15,685
2018-11-11,11,641
2018-11-12,14,787
2018-11-13,14,778
2018-11-14,14,770
2018-11-15,11,761
2018-11-16,13,752
2018-11-17,11,653
2018-11-18,8,640
2018-11-19,10,781
2018-11-20,12,795
2018-11-21,19,733
2018-11-22,13,749
2018-11-23,9,758
2018-11-24,13,671
2018-11-25,18,662
2018-11-26,12,809
2018-11-27,13,799
2018-11-28,10,753
2018-11-29,12,754
2018-11-30,15,816
2018-12-01,11,692
2018-12-02,31,687
2018-12-03,44,829
2018-12-04,17,789
2018-12-05,19,814
2018-12-06,16,804
2018-12-07,9,794
2018-12-08,15,714
2018-12-09,14,686
2018-12-10,16,833
2018-12-11,22,793
2018-12-12,8,803
2018-12-13,11,814
2018-12-14,12,784
2018-12-15,17,702
2018-12-16,19,702
2018-12-17,15,849
2018-12-18,20,856
2018-12-19,14,830
2018-12-20,23,809
2018-12-21,11,774
2018-12-22,13,726
2018-12-23,11,694
2018-12-24,15,810
2018-12-25,18,780
2018-12-26,13,827
2018-12-27,29,812
2018-12-28,12,840
2018-12-29,12,784
2018-12-30,17,736
2018-12-31,9,716
2019-01-01,13,730
2019-01-02,16,883
2019-01-03,18,845
2019-01-04,18,863
2019-01-05,16,764
2019-01-06,3,766
2019-01-07,10,893
2019-01-08,15,882
2019-01-09,13,881
2019-01-10,9,847
2019-01-11,12,861
2019-01-12,14,757
2019-01-13,13,753
2019-01-14,23,922
2019-01-15,18,861
2019-01-16,18,903
2019-01-17,14,890
2019-01-18,13,897
2019-01-19,6,761
2019-01-20,15,770
2019-01-21,10,898
2019-01-22,10,876
2019-01-23,17,881
2019-01-24,22,887
2019-01-25,20,866
2019-01-26,13,765
2019-01-27,13,795
2019-01-28,9,903
2019-01-29,14,898
2019-01-30,15,795
2019-01-31,8,807
2019-02-01,12,788
2019-02-02,8,704
2019-02-03,8,671
2019-02-04,11,693
2019-02-05,11,637
2019-02-06,17,665
2019-02-07,12,650
2019-02-08,9,685
2019-02-09,9,699
2019-02-10,14,700
2019-02-11,10,834
2019-02-12,12,842
2019-02-13,14,856
2019-02-14,12,905
2019-02-15,12,888
2019-02-16,9,794
2019-02-17,12,808
2019-02-18,20,987
2019-02-19,20,908
2019-02-20,21,893
2019-02-21,10,926
2019-02-22,15,947
2019-02-23,8,793
2019-02-24,9,814
2019-02-25,19,947
2019-02-26,27,956
2019-02-27,18,966
2019-02-28,18,951
2019-03-01,17,955
2019-03-02,14,880
2019-03-03,13,840
2019-03-04,11,992
2019-03-05,14,1008
2019-03-06,9,979
2019-03-07,12,934
2019-03-08,18,1006
2019-03-09,16,856
2019-03-10,13,845
2019-03-11,17,1023
2019-03-12,9,965
2019-03-13,7,1001
2019-03-14,9,964
2019-03-15,10,984
2019-03-16,13,855
2019-03-17,20,823
2019-03-18,20,1029
2019-03-19,11,991
2019-03-20,11,1004
2019-03-21,13,991
2019-03-22,14,972
2019-03-23,9,867
2019-03-24,6,849
2019-03-25,10,1039
2019-03-26,14,1006
2019-03-27,14,988
2019-03-28,7,970
2019-03-29,10,950
2019-03-30,12,870
2019-03-31,17,906
2019-04-01,10,1012
2019-04-02,13,999
2019-04-03,10,972
2019-04-04,6,945
2019-04-05,13,846
2019-04-06,8,822
2019-04-07,19,882
2019-04-08,15,1078
2019-04-09,13,1022
2019-04-10,6,1021
2019-04-11,17,995
2019-04-12,13,985
2019-04-13,13,890
2019-04-14,10,882
2019-04-15,12,1027
2019-04-16,20,987
2019-04-17,11,1014
2019-04-18,11,1036
2019-04-19,16,990
2019-04-20,13,878
2019-04-21,17,872
2019-04-22,18,1076
2019-04-23,15,1046
2019-04-24,12,1032
2019-04-25,16,1021
2019-04-26,15,1026
2019-04-27,12,898
2019-04-28,14,1012
2019-04-29,15,1076
2019-04-30,11,1002
2019-05-01,6,863
2019-05-02,7,859
2019-05-03,10,938
2019-05-04,14,905
2019-05-05,13,1065
2019-05-06,13,1106
2019-05-07,25,1064
2019-05-08,18,1031
2019-05-09,18,1108
2019-05-10,19,1048
2019-05-11,27,953
2019-05-12,13,913
2019-05-13,10,1110
2019-05-14,15,1059
2019-05-15,18,1022
2019-05-16,8,1095
2019-05-17,19,1076
2019-05-18,11,927
2019-05-19,10,914
2019-05-20,11,1130
2019-05-21,15,1063
2019-05-22,16,1084
2019-05-23,13,1064
2019-05-24,15,1009
2019-05-25,15,945
2019-05-26,9,891
2019-05-27,13,1098
2019-05-28,10,1049
2019-05-29,13,1114
2019-05-30,19,1058
2019-05-31,20,1081
2019-06-01,24,914
2019-06-02,24,917
2019-06-03,23,1128
2019-06-04,20,1080
2019-06-05,18,1075
2019-06-06,26,1090
2019-06-07,21,892
2019-06-08,15,925
2019-06-09,12,929
2019-06-10,18,1197
2019-06-11,23,1087
2019-06-12,24,1154
2019-06-13,19,1122
2019-06-14,23,1128
2019-06-15,17,988
2019-06-16,18,985
2019-06-17,21,1197
2019-06-18,23,1135
2019-06-19,26,1120
2019-06-20,16,1179
2019-06-21,13,1167
2019-06-22,19,986
2019-06-23,19,944
2019-06-24,14,1219
2019-06-25,25,1186
2019-06-26,22,1150
2019-06-27,18,1172
2019-06-28,11,1140
2019-06-29,15,965
2019-06-30,13,978
2019-07-01,10,1214
2019-07-02,20,1159
2019-07-03,22,1185
2019-07-04,19,1190
2019-07-05,19,1197
2019-07-06,11,1006
2019-07-07,18,950
2019-07-08,24,1218
2019-07-09,26,1249
2019-07-10,21,1170
2019-07-11,21,1187
2019-07-12,18,1213
2019-07-13,17,1004
2019-07-14,19,995
2019-07-15,25,1246
2019-07-16,24,1197
2019-07-17,27,1258
2019-07-18,16,1222
2019-07-19,13,1214
2019-07-20,14,1035
2019-07-21,16,1074
2019-07-22,15,1292
2019-07-23,21,1246
2019-07-24,16,1221
2019-07-25,15,1238
2019-07-26,20,1220
2019-07-27,19,1065
2019-07-28,17,1052
2019-07-29,21,1326
2019-07-30,21,1282
2019-07-31,24,1267
2019-08-01,10,1314
2019-08-02,14,1260
2019-08-03,18,1102
2019-08-04,8,1049
2019-08-05,20,1361
2019-08-06,20,1296
2019-08-07,20,1260
2019-08-08,14,1298
2019-08-09,12,1285
2019-08-10,23,1069
2019-08-11,12,1080
2019-08-12,14,1337
2019-08-13,13,1235
2019-08-14,17,1297
2019-08-15,15,1286
2019-08-16,15,1229
2019-08-17,12,1094
2019-08-18,11,1097
2019-08-19,17,1360
2019-08-20,22,1354
2019-08-21,19,1322
2019-08-22,23,1319
2019-08-23,12,1349
2019-08-24,15,1142
2019-08-25,19,1146
2019-08-26,12,1414
2019-08-27,13,1340
2019-08-28,11,1326
2019-08-29,17,1399
2019-08-30,19,1373
2019-08-31,17,1154
2019-09-01,13,1169
2019-09-02,20,1413
2019-09-03,12,1360
2019-09-04,13,1349
2019-09-05,18,1421
2019-09-06,18,1370
2019-09-07,17,1185
2019-09-08,17,1164
2019-09-09,11,1413
2019-09-10,17,1398
2019-09-11,21,1429
2019-09-12,19,1356
2019-09-13,13,1065
2019-09-14,18,1072
2019-09-15,13,1158
2019-09-16,11,1472
2019-09-17,13,1429
2019-09-18,15,1394
2019-09-19,15,1412
2019-09-20,20,1381
2019-09-21,19,1218
2019-09-22,15,1178
2019-09-23,14,1486
2019-09-24,12,1405
2019-09-25,18,1439
2019-09-26,23,1424
2019-09-27,17,1400
2019-09-28,10,1208
2019-09-29,16,1451
2019-09-30,18,1348
2019-10-01,20,1126
2019-10-02,24,1074
2019-10-03,15,1136
2019-10-04,11,1121
2019-10-05,24,1107
2019-10-06,11,1125
2019-10-07,17,1241
2019-10-08,17,1544
2019-10-09,11,1503
2019-10-10,17,1475
2019-10-11,18,1475
2019-10-12,19,1450
2019-10-13,7,1222
2019-10-14,4,1542
2019-10-15,5,1465
2019-10-16,7,1468
2019-10-17,2,1451
2019-10-18,15,1454
2019-10-19,9,1272
2019-10-20,8,1205
2019-10-21,14,1524
2019-10-22,12,1462
2019-10-23,14,1472
2019-10-24,12,1452
2019-10-25,3,1478
2019-10-26,3,1260
2019-10-27,8,1257
2019-10-28,4,1532
2019-10-29,8,1476
2019-10-30,9,1446
2019-10-31,6,1471
2019-11-01,5,1428
2019-11-02,12,1237
2019-11-03,14,1175
2019-11-04,7,1546
2019-11-05,10,1478
2019-11-06,8,1506
2019-11-07,5,1494
2019-11-08,9,1508
2019-11-09,14,1266
2019-11-10,7,1288
2019-11-11,6,1590
2019-11-12,4,1487
2019-11-13,9,1503
2019-11-14,10,1470
2019-11-15,10,1500
2019-11-16,11,1265
2019-11-17,13,1260
2019-11-18,14,1545
2019-11-19,13,1497
2019-11-20,10,1465
2019-11-21,10,1448
2019-11-22,14,1503
2019-11-23,13,1286
2019-11-24,8,1187
2019-11-25,10,1565
2019-11-26,12,1530
2019-11-27,6,1504
2019-11-28,6,1529
2019-11-29,9,1475
2019-11-30,9,1264
2019-12-01,7,1210
2019-12-02,6,1572
2019-12-03,4,1497
2019-12-04,5,1505
2019-12-05,4,1486
2019-12-06,9,1523
2019-12-07,11,1244
2019-12-08,8,1272
2019-12-09,7,1577
2019-12-10,11,1520
2019-12-11,13,1541
2019-12-12,13,1496
2019-12-13,6,1518
2019-12-14,4,1277
2019-12-15,6,1240
2019-12-16,9,1603
2019-12-17,14,1565
2019-12-18,8,1506
2019-12-19,7,1460
2019-12-20,13,1497
2019-12-21,13,1321
2019-12-22,9,1281
2019-12-23,22,1617
2019-12-24,16,1533
2019-12-25,15,1491
2019-12-26,10,1534
2019-12-27,11,1522
2019-12-28,9,1335
2019-12-29,12,1292
2019-12-30,8,1565
2019-12-31,16,1526
2020-01-01,8,1268
2020-01-02,13,1611
2020-01-03,18,1564
2020-01-04,12,1390
2020-01-05,14,1361
2020-01-06,18,1638
2020-01-07,14,1575
2020-01-08,19,1602
2020-01-09,9,1557
2020-01-10,17,1559
2020-01-11,14,1324
2020-01-12,11,1327
2020-01-13,11,1638
2020-01-14,8,1537
2020-01-15,10,1599
2020-01-16,29,1575
2020-01-17,33,1559
2020-01-18,16,1285
2020-01-19,17,1466
2020-01-20,19,1488
2020-01-21,18,1348
2020-01-22,14,1290
2020-01-23,12,1213
2020-01-24,5,1041
2020-01-25,16,1085
2020-01-26,13,1152
2020-01-27,10,1217
2020-01-28,16,1217
2020-01-29,18,1304
2020-01-30,14,1337
2020-01-31,16,1333
2020-02-01,12,1260
2020-02-02,13,1318
2020-02-03,13,1463
2020-02-04,11,1488
2020-02-05,14,1443
2020-02-06,30,1530
2020-02-07,21,1501
2020-02-08,17,491
2020-02-09,18,723
2020-02-10,16,1803
2020-02-11,16,1579
2020-02-12,12,1652
2020-02-13,19,1629
2020-02-14,12,1641
2020-02-15,26,1542
2020-02-16,22,1562
2020-02-17,14,1733
2020-02-18,24,1737
2020-02-19,21,1751
2020-02-20,20,1773
2020-02-21,21,1780
2020-02-22,23,1681
2020-02-23,17,1660
2020-02-24,15,1923
2020-02-25,17,1861
2020-02-26,21,1906
2020-02-27,15,1909
2020-02-28,19,1916
2020-02-29,15,1770
2020-03-01,14,1753
2020-03-02,16,2049
2020-03-03,20,1951
2020-03-04,20,1948
2020-03-05,20,1960
2020-03-06,21,1985
2020-03-07,18,1824
2020-03-08,19,1808
2020-03-09,11,2101
2020-03-10,19,2023
2020-03-11,25,2038
2020-03-12,14,2063
2020-03-13,22,2031
2020-03-14,14,1843
2020-03-15,18,1767
2020-03-16,20,2195
2020-03-17,15,2088
2020-03-18,25,2115
2020-03-19,22,2061
2020-03-20,19,2149
2020-03-21,15,1898
2020-03-22,12,1839
2020-03-23,14,2171
2020-03-24,27,2122
2020-03-25,24,2132
2020-03-26,16,2146
2020-03-27,22,2194
2020-03-28,20,1978
2020-03-29,24,1853
2020-03-30,22,2241
2020-03-31,25,2181
2020-04-01,19,2263
2020-04-02,12,2208
2020-04-03,26,2164
2020-04-04,22,1940
2020-04-05,20,1821
2020-04-06,24,1992
2020-04-07,27,2251
2020-04-08,23,2271
2020-04-09,23,2275
2020-04-10,18,2249
2020-04-11,11,1957
2020-04-12,22,1944
2020-04-13,16,2285
2020-04-14,16,2278
2020-04-15,24,2303
2020-04-16,20,2261
2020-04-17,19,2294
2020-04-18,14,2019
2020-04-19,18,1912
2020-04-20,22,2361
2020-04-21,27,2315
2020-04-22,20,2358
2020-04-23,16,2325
2020-04-24,18,2291
2020-04-25,22,2103
2020-04-26,23,2323
2020-04-27,21,2323
2020-04-28,12,2394
2020-04-29,27,2363
2020-04-30,17,2322
2020-05-01,19,1891
2020-05-02,13,1876
2020-05-03,12,1865
2020-05-04,14,2092
2020-05-05,16,2082
2020-05-06,17,2465
2020-05-07,21,2382
2020-05-08,19,2409
2020-05-09,21,2332
2020-05-10,16,2035
2020-05-11,26,2468
2020-05-12,14,2435
2020-05-13,23,2417
2020-05-14,21,2481
2020-05-15,26,2439
2020-05-16,20,2220
2020-05-17,19,2088
2020-05-18,21,2516
2020-05-19,14,2487
2020-05-20,29,2456
2020-05-21,16,2488
2020-05-22,22,2509
2020-05-23,23,2220
2020-05-24,20,2112
2020-05-25,36,2590
2020-05-26,25,2467
2020-05-27,20,2529
2020-05-28,25,2542
2020-05-29,17,2501
2020-05-30,33,2240
2020-05-31,13,2166
2020-06-01,15,2634
2020-06-02,19,2556
2020-06-03,17,2631
2020-06-04,15,2572
2020-06-05,21,2562
2020-06-06,19,2292
2020-06-07,23,2111
2020-06-08,23,2689
2020-06-09,24,2606
2020-06-10,38,2660
2020-06-11,35,2619
2020-06-12,27,2626
2020-06-13,16,2270
2020-06-14,28,2343
2020-06-15,31,2794
2020-06-16,20,2625
2020-06-17,17,2718
2020-06-18,22,2708
2020-06-19,27,2779
2020-06-20,23,2400
2020-06-21,25,2269
2020-06-22,23,2837
2020-06-23,16,2738
2020-06-24,21,2716
2020-06-25,20,2227
2020-06-26,18,2217
2020-06-27,21,2293
2020-06-28,14,2770
2020-06-29,24,2782
2020-06-30,30,2788
2020-07-01,22,2811
2020-07-02,24,2774
2020-07-03,19,2769
2020-07-04,23,2418
2020-07-05,24,2398
2020-07-06,29,2874
2020-07-07,17,2839
2020-07-08,25,2858
2020-07-09,20,2823
2020-07-10,17,2809
2020-07-11,23,2434
2020-07-12,29,2365
2020-07-13,31,2943
2020-07-14,23,2864
2020-07-15,22,2881
2020-07-16,19,2845
2020-07-17,20,2868
2020-07-18,28,2494
2020-07-19,25,2330
2020-07-20,21,3011
2020-07-21,20,2880
2020-07-22,26,2889
2020-07-23,18,2892
2020-07-24,13,2891
2020-07-25,25,2493
2020-07-26,18,2435
2020-07-27,29,3064
2020-07-28,23,2953
2020-07-29,19,3020
2020-07-30,20,3000
2020-07-31,24,2945
2020-08-01,18,2579
2020-08-02,25,2514
2020-08-03,26,3146
2020-08-04,19,2982
2020-08-05,26,3004
2020-08-06,23,2866
2020-08-07,31,3033
2020-08-08,15,2562
2020-08-09,19,2467
2020-08-10,15,3138
2020-08-11,18,2985
2020-08-12,25,2995
2020-08-13,23,3097
2020-08-14,29,3081
2020-08-15,22,2627
2020-08-16,19,2542
2020-08-17,17,3217
2020-08-18,25,3079
2020-08-19,25,3168
2020-08-20,20,3131
2020-08-21,21,3061
2020-08-22,13,2652
2020-08-23,19,2608
2020-08-24,210,3291
2020-08-25,77,3288
2020-08-26,67,3262
2020-08-27,55,3307
2020-08-28,33,3250
2020-08-29,41,2801
2020-08-30,36,2661
2020-08-31,51,3432
2020-09-01,48,3329
2020-09-02,29,3260
2020-09-03,26,3314
2020-09-04,21,3271
2020-09-05,22,2854
2020-09-06,29,2686
2020-09-07,24,3484
2020-09-08,30,3343
2020-09-09,35,3345
2020-09-10,31,3275
2020-09-11,19,3263
2020-09-12,23,2930
2020-09-13,18,2745
2020-09-14,18,3536
2020-09-15,18,3369
2020-09-16,22,3351
2020-09-17,29,3367
2020-09-18,21,3302
2020-09-19,19,2885
2020-09-20,17,2868
2020-09-21,32,3544
2020-09-22,33,3340
2020-09-23,28,3464
2020-09-24,21,3396
2020-09-25,20,3466
2020-09-26,27,2946
2020-09-27,20,3405
2020-09-28,25,3276
2020-09-29,28,3359
2020-09-30,22,3237
2020-10-01,16,2510
2020-10-02,19,2434
2020-10-03,34,2474
2020-10-04,15,2544
2020-10-05,14,2605
2020-10-06,21,2624
2020-10-07,19,2729
2020-10-08,17,2889
2020-10-09,30,3557
2020-10-10,26,3370
2020-10-11,21,3016
2020-10-12,17,3598
2020-10-13,29,3520
2020-10-14,39,3504
2020-10-15,37,3560
2020-10-16,32,3475
2020-10-17,22,3014
2020-10-18,27,2950
2020-10-19,42,3684
2020-10-20,21,3593
2020-10-21,23,3621
2020-10-22,32,3638
2020-10-23,26,3585
2020-10-24,25,3066
2020-10-25,14,2988
2020-10-26,26,3763
2020-10-27,177,3707
2020-10-28,49,3699
2020-10-29,28,3693
2020-10-30,40,3721
2020-10-31,35,3283
2020-11-01,19,3131
2020-11-02,25,3953
2020-11-03,26,3760
2020-11-04,40,3843
2020-11-05,32,3862
2020-11-06,26,3804
2020-11-07,30,3326
2020-11-08,23,3166
2020-11-09,35,3962
2020-11-10,21,3836
2020-11-11,27,3861
2020-11-12,27,3779
2020-11-13,31,3819
2020-11-14,21,3289
2020-11-15,23,3262
2020-11-16,28,4076
2020-11-17,31,3900
2020-11-18,24,3890
2020-11-19,35,3979
2020-11-20,32,4014
2020-11-21,28,3478
2020-11-22,28,3292
2020-11-23,24,4163
2020-11-24,24,3996
2020-11-25,34,3979
2020-11-26,24,4025
2020-11-27,37,4006
2020-11-28,17,3448
2020-11-29,21,3305
2020-11-30,34,4301
2020-12-01,36,4041
2020-12-02,41,4052
2020-12-03,29,4081
2020-12-04,39,4009
2020-12-05,34,3554
2020-12-06,36,3414
2020-12-07,45,4328
2020-12-08,37,4268
2020-12-09,32,4183
2020-12-10,37,4196
2020-12-11,30,4229
2020-12-12,25,3608
2020-12-13,25,3472
2020-12-14,24,4399
2020-12-15,19,4183
2020-12-16,27,4240
2020-12-17,61,4203
2020-12-18,42,4211
2020-12-19,28,3645
2020-12-20,34,3447
2020-12-21,35,4458
2020-12-22,40,4202
2020-12-23,31,4182
2020-12-24,26,4245
2020-12-25,30,4131
2020-12-26,26,3614
2020-12-27,23,3474
2020-12-28,39,4439
2020-12-29,22,4249
2020-12-30,18,4221
2020-12-31,29,4071
2021-01-01,30,3220
2021-01-02,23,3366
2021-01-03,25,3552
2021-01-04,39,4507
2021-01-05,34,4379
2021-01-06,41,4324
2021-01-07,24,4371
2021-01-08,22,4213
2021-01-09,38,3696
2021-01-10,32,3506
2021-01-11,27,4382
2021-01-12,20,4175
2021-01-13,31,4173
2021-01-14,35,4307
2021-01-15,24,4261
2021-01-16,20,3752
2021-01-17,19,3492
2021-01-18,31,4498
2021-01-19,20,4486
2021-01-20,29,4468
2021-01-21,29,4451
2021-01-22,29,4455
2021-01-23,29,3816
2021-01-24,37,3679
2021-01-25,33,4622
2021-01-26,29,4624
2021-01-27,27,4496
2021-01-28,22,4441
2021-01-29,30,4538
2021-01-30,20,3581
2021-01-31,22,3718
2021-02-01,30,4677
2021-02-02,22,4578
2021-02-03,35,4493
2021-02-04,29,4570
2021-02-05,23,4475
2021-02-06,33,3885
2021-02-07,31,4204
2021-02-08,34,3885
2021-02-09,33,2966
2021-02-10,30,2796
2021-02-11,21,2375
2021-02-12,15,2308
2021-02-13,25,2237
2021-02-14,27,1768
2021-02-15,28,3430
2021-02-16,35,3303
2021-02-17,24,3492
2021-02-18,45,4240
2021-02-19,26,4412
2021-02-20,29,4431
2021-02-21,29,3963
2021-02-22,23,4481
2021-02-23,36,4722
2021-02-24,28,4509
2021-02-25,28,4790
2021-02-26,39,4671
2021-02-27,28,4019
2021-02-28,17,3904
2021-03-01,27,4934
2021-03-02,40,4825
2021-03-03,34,4843
2021-03-04,37,4826
2021-03-05,28,4797
2021-03-06,35,4183
2021-03-07,28,4044
2021-03-08,31,3950
2021-03-09,38,3601
2021-03-10,30,3957
2021-03-11,28,3877
2021-03-12,20,3829
2021-03-13,13,3266
2021-03-14,30,3105
2021-03-15,37,3616
2021-03-16,30,4128
2021-03-17,37,3583
2021-03-18,30,3771
2021-03-19,34,3451
2021-03-20,32,3096
2021-03-21,27,2610
2021-03-22,24,3599
2021-03-23,28,3002
2021-03-24,38,3564
2021-03-25,35,4161
2021-03-26,24,3630
2021-03-27,30,2829
2021-03-28,25,2750
2021-03-29,23,3196
2021-03-30,28,3697
2021-03-31,23,2993
2021-04-01,39,3584
2021-04-02,47,3096
2021-04-03,27,2328
2021-04-04,21,2683
2021-04-05,25,2766
2021-04-06,27,3903
2021-04-07,30,3560
2021-04-08,32,3746
2021-04-09,35,3591
2021-04-10,29,3147